Location: Bennemühlen
(52.5740°N, 9.7135°E)
Time: 00:10:44
(UTC+00:00)

Vanguard 2 - Visible Passes

Search period start: 17 February 2026 00:00
Search period end: 27 February 2026 00:00
Orbit: 553 x 2897 km, 32.9° (Epoch: 15 February)

Date Brightness Start Highest point End Pass type
(mag) Time Alt. Az. Time Alt. Az. Time Alt. Az.
24 Feb 10.3 03:34:56 11° S 03:35:40 11° S 03:37:28 10° SSE visible
25 Feb 10.2 03:46:04 12° SSW 03:47:18 13° S 03:50:00 10° SSE visible
26 Feb 10.1 03:57:10 13° SSW 03:58:55 14° S 04:02:03 10° SSE visible
